GW3165 Weather Reports


time (UTC)temp
C
wind
direction
speed
KPH
gust
KPH
rain 1hr
cm
rain 24hr
cm
rain mn
cm
humidity
%
barometer
mb
20260906223522 32 65 0.0 9.7 0.00 0.00 0.00 33 1016.2
20260906223056 32 67 3.2 9.7 0.00 0.00 0.00 32 1016.2
20260906222519 32 69 3.2 11.3 0.00 0.00 0.00 32 1016.3
20260906222020 32 139 4.8 11.3 0.00 0.00 0.00 31 1016.4
20260906221543 33 54 4.8 16.1 0.00 0.00 0.00 31 1016.4
20260906221018 32 63 4.8 16.1 0.00 0.00 0.00 31 1016.4
20260906220520 32 63 3.2 16.1 0.00 0.00 0.00 31 1016.5
20260906220046 32 336 3.2 11.3 0.00 0.00 0.00 31 1016.6
20260906215524 32 55 4.8 9.7 0.00 0.00 0.00 31 1016.7
20260906215019 33 282 1.6 11.3 0.00 0.00 0.00 31 1016.7
20260906214600 32 235 3.2 11.3 0.00 0.00 0.00 31 1016.7
20260906214026 32 348 3.2 12.9 0.00 0.00 0.00 32 1017.0
20260906213526 32 323 4.8 12.9 0.00 0.00 0.00 33 1017.0
20260906213043 32 30 3.2 8.0 0.00 0.00 0.00 31 1017.0
20260906212518 32 68 1.6 8.0 0.00 0.00 0.00 32 1017.2
20260906212021 32 287 3.2 9.7 0.00 0.00 0.00 32 1017.4
20260906211546 32 91 1.6 9.7 0.00 0.00 0.00 31 1017.5
20260906211018 32 128 1.6 8.0 0.00 0.00 0.00 32 1017.5
20260906210518 31 84 1.6 9.7 0.00 0.00 0.00 33 1017.8
20260906210108 31 84 3.2 9.7 0.00 0.00 0.00 31 1017.9
20260906205520 32 111 0.0 9.7 0.00 0.00 0.00 33 1018.0
20260906205022 32 290 1.6 9.7 0.00 0.00 0.00 31 1018.0
20260906204552 31 155 1.6 11.3 0.00 0.00 0.00 32 1018.1
20260906204026 31 67 4.8 11.3 0.00 0.00 0.00 32 1018.3
20260906203522 31 57 1.6 11.3 0.00 0.00 0.00 34 1018.3
20260906203046 31 140 1.6 11.3 0.00 0.00 0.00 33 1018.3
20260906202522 30 122 3.2 14.5 0.00 0.00 0.00 35 1018.5
20260906202019 30 136 4.8 14.5 0.00 0.00 0.00 35 1018.5
20260906201548 30 288 6.4 14.5 0.00 0.00 0.00 35 1018.4
20260906201019 30 56 1.6 9.7 0.00 0.00 0.00 34 1018.6
20260906200520 30 319 1.6 9.7 0.00 0.00 0.00 34 1018.7
20260906200042 30 54 3.2 8.0 0.00 0.00 0.00 34 1018.8
20260906195520 31 120 1.6 11.3 0.00 0.00 0.00 33 1018.9
20260906195019 30 23 1.6 11.3 0.00 0.00 0.00 33 1018.9
20260906194543 30 148 4.8 9.7 0.00 0.00 0.00 36 1018.9
20260906194023 30 90 3.2 12.9 0.00 0.00 0.00 35 1019.0
20260906193527 30 79 3.2 12.9 0.00 0.00 0.00 36 1019.2
20260906193042 30 60 3.2 8.0 0.00 0.00 0.00 35 1019.1
20260906192521 30 301 1.6 12.9 0.00 0.00 0.00 35 1019.3
20260906192021 29 82 4.8 12.9 0.00 0.00 0.00 36 1019.4
20260906191558 30 59 1.6 9.7 0.00 0.00 0.00 37 1019.4
20260906191020 29 76 3.2 8.0 0.00 0.00 0.00 37 1019.4
20260906190521 29 0 1.6 8.0 0.00 0.00 0.00 38 1019.5
20260906190047 29 131 3.2 9.7 0.00 0.00 0.00 39 1019.6
20260906185519 29 71 1.6 9.7 0.00 0.00 0.00 39 1019.8
20260906185024 28 117 3.2 9.7 0.00 0.00 0.00 37 1019.9
20260906184549 29 141 3.2 8.0 0.00 0.00 0.00 37 1019.9
20260906184028 29 102 0.0 9.7 0.00 0.00 0.00 38 1019.9
20260906183524 28 105 3.2 9.7 0.00 0.00 0.00 39 1020.1
20260906183043 28 45 0.0 12.9 0.00 0.00 0.00 41 1020.1
20260906182525 28 295 3.2 12.9 0.00 0.00 0.00 40 1020.2
20260906182026 27 72 4.8 12.9 0.00 0.00 0.00 42 1020.4
20260906181546 27 70 4.8 12.9 0.00 0.00 0.00 41 1020.5
20260906181024 28 136 3.2 6.4 0.00 0.00 0.00 42 1020.6
20260906180524 28 150 1.6 6.4 0.00 0.00 0.00 44 1020.7
20260906180104 27 223 1.6 6.4 0.00 0.00 0.00 44 1020.7
20260906175525 27 120 1.6 6.4 0.00 0.00 0.00 44 1021.0
20260906175023 27 94 1.6 4.8 0.00 0.00 0.00 45 1021.1
20260906174555 26 68 1.6 6.4 0.00 0.00 0.00 46 1021.1
20260906174019 26 96 1.6 9.7 0.00 0.00 0.00 47 1021.3
20260906173525 26 277 1.6 9.7 0.00 0.00 0.00 47 1021.3
20260906173042 26 63 3.2 9.7 0.00 0.00 0.00 45 1021.4
20260906172524 26 121 1.6 6.4 0.00 0.00 0.00 47 1021.5
20260906172024 26 342 1.6 6.4 0.00 0.00 0.00 47 1021.6
20260906171541 26 143 1.6 6.4 0.00 0.00 0.00 47 1021.6
20260906171024 26 0 1.6 6.4 0.00 0.00 0.00 47 1021.6
20260906170524 26 133 1.6 6.4 0.00 0.00 0.00 47 1021.7
20260906170047 26 151 1.6 4.8 0.00 0.00 0.00 48 1021.9
20260906165523 26 136 1.6 6.4 0.00 0.00 0.00 47 1022.0
20260906165023 25 146 1.6 8.0 0.00 0.00 0.00 48 1022.0
20260906164544 25 124 0.0 8.0 0.00 0.00 0.00 50 1022.0
20260906164020 25 154 3.2 8.0 0.00 0.00 0.00 53 1022.0
20260906163523 25 36 1.6 8.0 0.00 0.00 0.00 52 1021.9
20260906163042 25 82 0.0 3.2 0.00 0.00 0.00 52 1022.0
20260906162520 25 181 1.6 3.2 0.00 0.00 0.00 53 1022.0
20260906162023 25 150 0.0 4.8 0.00 0.00 0.00 55 1021.9
20260906161540 24 81 0.0 4.8 0.00 0.00 0.00 57 1021.9
20260906161027 23 158 0.0 4.8 0.00 0.00 0.00 58 1022.0
20260906160524 23 284 3.2 4.8 0.00 0.00 0.00 57 1021.9
20260906160046 23 112 0.0 3.2 0.00 0.00 0.00 59 1021.9
20260906155524 23 0 0.0 4.8 0.00 0.00 0.00 59 1022.0
20260906155023 23 0 1.6 11.3 0.00 0.00 0.00 58 1022.0
20260906154546 23 0 1.6 11.3 0.00 0.00 0.00 60 1021.8
20260906154023 23 63 1.6 4.8 0.00 0.00 0.00 59 1021.9
20260906153524 23 0 0.0 4.8 0.00 0.00 0.00 62 1021.9
20260906153109 22 0 0.0 8.0 0.00 0.00 0.00 61 1021.9
20260906152524 22 0 1.6 8.0 0.00 0.00 0.00 62 1022.0
20260906152018 23 0 0.0 1.6 0.00 0.00 0.00 62 1022.0
20260906151552 22 0 0.0 4.8 0.00 0.00 0.00 64 1022.0
20260906151019 22 0 1.6 6.4 0.00 0.00 0.00 65 1022.0
20260906150520 21 0 1.6 6.4 0.00 0.00 0.00 67 1022.1
20260906150046 21 331 0.0 4.8 0.00 0.00 0.00 66 1022.1
20260906145519 21 321 1.6 3.2 0.00 0.00 0.00 66 1022.0
20260906145018 21 0 0.0 4.8 0.00 0.00 0.00 67 1021.9
20260906144545 21 0 0.0 4.8 0.00 0.00 0.00 69 1022.0
20260906144021 20 304 1.6 4.8 0.00 0.00 0.00 69 1022.3
20260906143521 20 352 1.6 4.8 0.00 0.00 0.00 69 1022.2
20260906143047 21 322 1.6 3.2 0.00 0.00 0.00 68 1022.1
20260906142518 21 0 0.0 3.2 0.00 0.00 0.00 69 1022.1
20260906142021 20 0 0.0 4.8 0.00 0.00 0.00 69 1022.0
20260906141545 20 354 1.6 4.8 0.00 0.00 0.00 70 1022.0
20260906141018 20 340 1.6 4.8 0.00 0.00 0.00 69 1022.0
20260906140519 20 288 1.6 4.8 0.00 0.00 0.00 68 1022.1
20260906140041 20 332 0.0 4.8 0.00 0.00 0.00 67 1022.2
20260906135525 20 0 0.0 3.2 0.00 0.00 0.00 66 1022.2
20260906135019 20 0 0.0 0.0 0.00 0.00 0.00 68 1022.1
20260906134603 18 0 0.0 0.0 0.00 0.00 0.00 72 1022.1
20260906134018 17 0 0.0 1.6 0.00 0.00 0.00 73 1022.0
20260906133521 17 0 0.0 1.6 0.00 0.00 0.00 74 1022.0
20260906133051 17 0 0.0 1.6 0.00 0.00 0.00 76 1022.0
20260906132520 16 0 0.0 0.0 0.00 0.00 0.00 78 1021.8
20260906132019 16 0 0.0 0.0 0.00 0.00 0.00 79 1021.9
20260906131541 16 0 0.0 0.0 0.00 0.00 0.00 81 1021.8
20260906131019 16 0 0.0 0.0 0.00 0.00 0.00 82 1021.9
20260906130520 15 0 0.0 0.0 0.00 0.00 0.00 82 1021.8
20260906130041 15 0 0.0 0.0 0.00 0.00 0.00 82 1021.8
20260906125523 15 0 0.0 0.0 0.00 0.00 0.00 82 1021.7
20260906125025 15 0 0.0 0.0 0.00 0.00 0.00 82 1021.6
20260906124544 15 0 0.0 0.0 0.00 0.00 0.00 82 1021.5
20260906124022 15 0 0.0 0.0 0.00 0.00 0.00 81 1021.6
20260906123518 15 0 0.0 0.0 0.00 0.00 0.00 81 1021.6
20260906123053 16 0 0.0 0.0 0.00 0.00 0.00 81 1021.6
20260906122520 16 0 0.0 0.0 0.00 0.00 0.00 80 1021.7
20260906122032 16 0 0.0 0.0 0.00 0.00 0.00 79 1021.7
20260906121544 16 0 0.0 0.0 0.00 0.00 0.00 80 1021.6
20260906121018 16 0 0.0 0.0 0.00 0.00 0.00 79 1021.7
20260906120520 16 0 0.0 0.0 0.00 0.00 0.00 79 1021.7
20260906120050 16 0 0.0 0.0 0.00 0.00 0.00 78 1021.7
20260906115523 16 0 0.0 0.0 0.00 0.00 0.00 77 1021.7
20260906115022 16 0 0.0 0.0 0.00 0.00 0.00 76 1021.6
20260906114543 17 0 0.0 0.0 0.00 0.00 0.00 75 1021.5
20260906114021 17 0 0.0 0.0 0.00 0.00 0.00 75 1021.6
20260906113523 17 0 0.0 0.0 0.00 0.00 0.00 73 1021.6
20260906113043 17 0 0.0 1.6 0.00 0.00 0.00 73 1021.6
20260906112521 17 0 0.0 1.6 0.00 0.00 0.00 72 1021.6
20260906112019 17 0 0.0 4.8 0.00 0.00 0.00 71 1021.4
20260906111538 17 0 1.6 6.4 0.00 0.00 0.00 70 1021.4
20260906111018 17 3 3.2 8.0 0.00 0.00 0.00 69 1021.4
20260906110520 18 349 4.8 8.0 0.00 0.00 0.00 69 1021.4
20260906110043 18 338 1.6 4.8 0.00 0.00 0.00 68 1021.3
20260906105519 18 0 1.6 6.4 0.00 0.00 0.00 68 1021.3
20260906105024 18 250 1.6 6.4 0.00 0.00 0.00 68 1021.2
20260906104541 18 353 1.6 4.8 0.00 0.00 0.00 69 1021.2
20260906104024 18 294 1.6 9.7 0.00 0.00 0.00 69 1021.3
20260906103521 18 0 1.6 9.7 0.00 0.00 0.00 68 1021.2
20260906103058 18 351 3.2 9.7 0.00 0.00 0.00 68 1021.1
20260906102520 18 340 3.2 6.4 0.00 0.00 0.00 67 1021.2
20260906102017 18 335 0.0 4.8 0.00 0.00 0.00 66 1021.0
20260906101540 18 331 1.6 4.8 0.00 0.00 0.00 65 1020.9
20260906101020 18 333 0.0 4.8 0.00 0.00 0.00 64 1021.0
20260906100523 18 340 1.6 3.2 0.00 0.00 0.00 63 1021.0
20260906100043 18 326 0.0 4.8 0.00 0.00 0.00 63 1021.0
20260906095521 18 323 3.2 4.8 0.00 0.00 0.00 64 1021.0
20260906095021 17 0 0.0 1.6 0.00 0.00 0.00 64 1021.1
20260906094540 17 0 0.0 0.0 0.00 0.00 0.00 63 1021.2
20260906094021 17 0 0.0 0.0 0.00 0.00 0.00 63 1021.0
20260906093522 18 0 0.0 0.0 0.00 0.00 0.00 62 1021.0
20260906093040 18 0 0.0 0.0 0.00 0.00 0.00 62 1020.9
20260906092517 18 0 0.0 0.0 0.00 0.00 0.00 62 1021.0
20260906092024 18 0 0.0 0.0 0.00 0.00 0.00 61 1021.0
20260906091539 18 0 0.0 1.6 0.00 0.00 0.00 61 1020.8
20260906091020 18 0 0.0 1.6 0.00 0.00 0.00 61 1020.8
20260906090519 18 0 0.0 0.0 0.00 0.00 0.00 60 1020.8
20260906090059 18 0 0.0 0.0 0.00 0.00 0.00 60 1020.7
20260906085523 19 0 0.0 1.6 0.00 0.00 0.00 58 1020.6
20260906085023 19 0 0.0 1.6 0.00 0.00 0.00 58 1020.6
20260906084542 19 0 0.0 1.6 0.00 0.00 0.00 57 1020.6
20260906084019 20 0 0.0 1.6 0.00 0.00 0.00 56 1020.5
20260906083521 20 0 0.0 1.6 0.00 0.00 0.00 56 1020.5
20260906083040 20 0 0.0 1.6 0.00 0.00 0.00 55 1020.6
20260906082517 20 352 0.0 1.6 0.00 0.00 0.00 55 1020.7
20260906082021 20 0 0.0 0.0 0.00 0.00 0.00 55 1020.8
20260906081542 20 0 0.0 0.0 0.00 0.00 0.00 54 1020.7
20260906081018 20 0 0.0 1.6 0.00 0.00 0.00 53 1020.7
20260906080521 21 0 0.0 1.6 0.00 0.00 0.00 53 1020.7
20260906080041 21 0 0.0 0.0 0.00 0.00 0.00 52 1020.8
20260906075524 21 0 0.0 1.6 0.00 0.00 0.00 51 1020.7
20260906075019 21 0 0.0 1.6 0.00 0.00 0.00 50 1020.5
20260906074542 21 0 0.0 1.6 0.00 0.00 0.00 49 1020.4
20260906074021 22 283 0.0 1.6 0.00 0.00 0.00 48 1020.3
20260906073521 22 26 0.0 4.8 0.00 0.00 0.00 48 1020.2
20260906073056 22 0 0.0 6.4 0.00 0.00 0.00 48 1020.2
20260906072520 22 318 3.2 9.7 0.00 0.00 0.00 48 1020.2
20260906072022 22 301 3.2 9.7 0.00 0.00 0.00 48 1020.2
20260906071540 22 262 1.6 8.0 0.00 0.00 0.00 48 1020.1
20260906071020 22 317 3.2 8.0 0.00 0.00 0.00 49 1020.1
20260906070521 21 297 1.6 8.0 0.00 0.00 0.00 50 1020.0
20260906070044 21 326 1.6 8.0 0.00 0.00 0.00 51 1020.1
20260906065523 21 294 3.2 8.0 0.00 0.00 0.00 52 1020.2
20260906065025 21 0 0.0 1.6 0.00 0.00 0.00 53 1020.3
20260906064543 21 0 0.0 0.0 0.00 0.00 0.00 53 1020.5
20260906064022 21 0 0.0 1.6 0.00 0.00 0.00 53 1020.6
20260906063521 21 0 0.0 1.6 0.00 0.00 0.00 52 1020.6
20260906063048 21 337 0.0 1.6 0.00 0.00 0.00 52 1020.7
20260906062520 21 0 0.0 0.0 0.00 0.00 0.00 51 1020.7
20260906062018 22 0 0.0 0.0 0.00 0.00 0.00 50 1020.8
20260906061542 22 0 0.0 0.0 0.00 0.00 0.00 49 1020.8
20260906061024 22 0 0.0 1.6 0.00 0.00 0.00 48 1020.8
20260906060523 22 0 0.0 3.2 0.00 0.00 0.00 48 1020.7
20260906060046 23 0 0.0 3.2 0.00 0.00 0.00 47 1020.8
20260906055524 23 0 0.0 4.8 0.00 0.00 0.00 46 1020.9
20260906055019 23 291 1.6 6.4 0.00 0.00 0.00 46 1021.0
20260906054544 23 265 0.0 6.4 0.00 0.00 0.00 45 1021.0
20260906054021 23 292 1.6 6.4 0.00 0.00 0.00 45 1021.0
20260906053523 23 187 0.0 3.2 0.00 0.00 0.00 46 1021.1
20260906053041 23 0 0.0 0.0 0.00 0.00 0.00 47 1021.0
20260906052528 23 0 0.0 0.0 0.00 0.00 0.00 43 1020.9
20260906052024 23 0 0.0 0.0 0.00 0.00 0.00 40 1020.9
20260906051558 24 0 0.0 0.0 0.00 0.00 0.00 40 1021.2
20260906051024 24 0 0.0 1.6 0.00 0.00 0.00 39 1021.3
20260906050523 24 0 0.0 4.8 0.00 0.00 0.00 39 1021.4
20260906050058 24 335 0.0 4.8 0.00 0.00 0.00 38 1021.4
20260906045524 24 310 0.0 6.4 0.00 0.00 0.00 38 1021.3
20260906045021 24 0 0.0 8.0 0.00 0.00 0.00 38 1021.4
20260906044549 23 168 4.8 8.0 0.00 0.00 0.00 39 1021.5
20260906044025 23 212 1.6 4.8 0.00 0.00 0.00 40 1021.5
20260906043527 23 295 0.0 6.4 0.00 0.00 0.00 42 1021.3
20260906043053 22 0 0.0 6.4 0.00 0.00 0.00 43 1021.3
20260906042523 22 0 0.0 1.6 0.00 0.00 0.00 47 1021.3
20260906042021 21 0 0.0 1.6 0.00 0.00 0.00 48 1021.0
20260906041546 21 0 0.0 0.0 0.00 0.00 0.00 49 1020.7
20260906041025 21 0 0.0 0.0 0.00 0.00 0.00 49 1020.5
20260906040524 21 0 0.0 0.0 0.00 0.00 0.00 49 1020.3
20260906040045 21 0 0.0 0.0 0.00 0.00 0.00 49 1020.3
20260906035518 21 0 0.0 0.0 0.00 0.00 0.00 48 1020.3
20260906035018 21 0 0.0 0.0 0.00 0.00 0.00 47 1020.1
20260906034604 21 0 0.0 0.0 0.00 0.00 0.00 47 1020.1
20260906034028 22 0 0.0 0.0 0.00 0.00 0.00 47 1020.1
20260906033524 22 0 0.0 0.0 0.00 0.00 0.00 46 1019.9
20260906033046 22 0 0.0 0.0 0.00 0.00 0.00 45 1019.9
20260906032523 22 0 0.0 1.6 0.00 0.00 0.00 45 1019.9
20260906032025 22 0 0.0 1.6 0.00 0.00 0.00 45 1020.0
20260906031549 22 15 0.0 1.6 0.00 0.00 0.00 45 1019.9
20260906031024 22 19 0.0 1.6 0.00 0.00 0.00 44 1019.8
20260906030522 22 0 0.0 1.6 0.00 0.00 0.00 43 1019.7
20260906030044 23 0 0.0 0.0 0.00 0.00 0.00 43 1019.6
20260906025525 23 0 0.0 0.0 0.00 0.00 0.00 42 1019.4
20260906025025 23 0 0.0 0.0 0.00 0.00 0.00 41 1019.2
20260906024547 23 0 0.0 0.0 0.00 0.00 0.00 40 1019.0
20260906024024 24 0 0.0 0.0 0.00 0.00 0.00 39 1018.9
20260906023525 24 0 0.0 0.0 0.00 0.00 0.00 38 1018.8
20260906023044 25 0 0.0 0.0 0.00 0.00 0.00 38 1018.8
20260906022528 25 0 0.0 0.0 0.00 0.00 0.00 37 1018.8
20260906022024 25 0 0.0 0.0 0.00 0.00 0.00 36 1018.8
20260906021546 25 0 0.0 0.0 0.00 0.00 0.00 35 1018.8
20260906021024 26 0 0.0 1.6 0.00 0.00 0.00 34 1018.7
20260906020522 26 0 0.0 1.6 0.00 0.00 0.00 33 1018.8
20260906020055 26 0 0.0 1.6 0.00 0.00 0.00 33 1018.7
20260906015527 27 349 1.6 1.6 0.00 0.00 0.00 32 1018.7
20260906015025 27 345 0.0 4.8 0.00 0.00 0.00 31 1018.7
20260906014544 27 0 0.0 4.8 0.00 0.00 0.00 31 1018.6
20260906014025 27 347 1.6 4.8 0.00 0.00 0.00 30 1018.6
20260906013521 27 338 1.6 8.0 0.00 0.00 0.00 30 1018.5
20260906013100 28 347 1.6 8.0 0.00 0.00 0.00 29 1018.4
20260906012519 28 39 1.6 8.0 0.00 0.00 0.00 29 1018.4
20260906012020 28 345 1.6 11.3 0.00 0.00 0.00 28 1018.4
20260906011547 28 309 4.8 12.9 0.00 0.00 0.00 28 1018.5
20260906011027 28 336 1.6 12.9 0.00 0.00 0.00 28 1018.5
20260906010527 28 323 3.2 12.9 0.00 0.00 0.00 29 1018.4
20260906010043 29 339 0.0 4.8 0.00 0.00 0.00 30 1018.3
20260906005523 29 0 0.0 3.2 0.00 0.00 0.00 30 1018.3
20260906005025 29 298 0.0 4.8 0.00 0.00 0.00 29 1018.4
20260906004544 29 311 1.6 4.8 0.00 0.00 0.00 30 1018.4
20260906004027 30 320 0.0 1.6 0.00 0.00 0.00 33 1018.4
20260906003524 30 0 0.0 0.0 0.00 0.00 0.00 31 1018.3
20260906003043 30 0 0.0 0.0 0.00 0.00 0.00 30 1018.4
20260906002518 31 0 0.0 0.0 0.00 0.00 0.00 27 1018.4
20260906002024 31 305 0.0 0.0 0.00 0.00 0.00 26 1018.3
20260906001541 32 0 0.0 0.0 0.00 0.00 0.00 25 1018.3
20260906001024 32 0 0.0 1.6 0.00 0.00 0.00 25 1018.4
20260906000525 32 0 0.0 1.6 0.00 0.00 0.00 25 1018.3
20260906000052 32 0 0.0 3.2 0.00 0.00 0.00 24 1018.3
20260905235525 32 0 0.0 6.4 0.00 0.00 0.00 25 1018.2
20260905235024 32 289 0.0 6.4 0.00 0.00 0.00 22 1018.2
20260905234545 32 307 1.6 6.4 0.00 0.00 0.00 23 1018.2
20260905234021 32 333 1.6 3.2 0.00 0.00 0.00 23 1018.2
20260905233524 32 341 1.6 3.2 0.00 0.00 0.00 22 1018.2
20260905233045 33 337 1.6 3.2 0.00 0.00 0.00 22 1018.2
20260905232524 33 20 0.0 6.4 0.00 0.00 0.00 22 1018.2
20260905232024 32 67 0.0 6.4 0.00 0.00 0.00 22 1018.2
20260905231546 33 84 0.0 3.2 0.00 0.00 0.00 22 1018.3
20260905231025 32 70 0.0 1.6 0.00 0.00 0.00 25 1018.1
20260905230525 31 70 0.0 1.6 0.00 0.00 0.00 24 1018.2
20260905230049 31 0 0.0 1.6 0.00 0.00 0.00 24 1018.3
20260905225526 32 0 0.0 1.6 0.00 0.00 0.00 23 1018.1
20260905225020 32 0 0.0 4.8 0.00 0.00 0.00 24 1018.0
20260905224542 32 0 1.6 9.7 0.00 0.00 0.00 22 1018.1
20260905224021 32 134 4.8 9.7 0.00 0.00 0.00 22 1018.0